Tracking 19279 objects as of 14-Nov-2018
HD Live streaming from Space Station
objects crossing your sky now

COSMOS 1862

Track COSMOS 1862 now!
10-day predictions
COSMOS 1862 is classified as:


NORAD ID: 18152
Int'l Code: 1987-055A
Perigee: 547.0 km
Apogee: 564.0 km
Inclination: 82.5 °
Period: 95.6 minutes
Semi major axis: 6926 km
RCS: 8.6433 m2 (large)
Launch date: July 1, 1987
Source: Commonwealth of Independent States (former USSR) (CIS)
Launch site: PLESETSK MISSILE AND SPACE COMPLEX (PKMTR)
aabbcc
Your satellite tracking list
Your tracking list is empty




NASA's NSSDC Master Catalog

Two Line Element Set (TLE):
1 18152U 87055A   18318.11089683  .00000199  00000-0  11678-4 0  9995
2 18152  82.4949 153.7403 0012302 254.3997 105.5872 15.06021487707157
Source of the keplerian elements: AFSPC